Date String (YYYY-MM-DD hh:mm:ss) UTC,Instrument flags,Ambient pressure (hPa),Sample flow (lpm),Bypass flow (lpm),Sample temperature (°C),Ambient temperature (°C),ASC tube jacket temperature (°C),LED temperature (°C),Box temperature (°C),Sample RH (%),Span deviation,Mass concentration (μg/m³),Mass concentration (μg/m³),Mass concentration (μg/m³)
DateTimeUTC,F1_M11,P_M11,Q1_M11,Q2_M11,T1_M11,T2_M11,T3_M11,T4_M11,T5_M11,U1_M11,ZSPAN_M11,X2_M11,X0_M11,X1_M11
2022-08-14 09:00:00,,0828.7,5.00,0.00,29.7,28.6,00.0,38.4,31.5,31.5,0000.0,0004.87,0013.05,0003.91
2022-08-14 09:01:00,,0828.7,5.00,0.00,29.7,28.6,00.0,38.5,31.5,31.3,0000.0,0004.78,0012.78,0003.89
2022-08-14 09:02:00,,0828.8,5.00,0.00,29.7,28.7,00.0,38.5,31.6,31.0,0000.0,0004.76,0012.18,0003.88
2022-08-14 09:03:00,,0828.9,4.99,0.00,29.7,28.7,00.0,38.5,31.6,30.8,0000.0,0004.74,0011.72,0003.88
2022-08-14 09:04:00,,0828.8,5.00,0.00,29.7,28.8,00.0,38.5,31.6,30.6,0000.0,0004.69,0011.53,0003.89
2022-08-14 09:05:00,,0829.2,5.01,0.00,29.8,28.8,00.0,38.5,31.7,30.6,0000.0,0004.68,0011.92,0003.89
2022-08-14 09:06:00,,0829.4,5.01,0.00,29.8,28.7,00.0,38.5,31.6,32.3,0000.0,0004.62,0011.45,0003.90
2022-08-14 09:07:00,,0829.2,4.99,0.00,29.8,28.1,00.0,38.5,31.4,32.9,0000.0,0004.58,0010.03,0003.91
2022-08-14 09:08:00,,0829.1,4.99,0.00,29.7,27.6,00.0,38.4,31.3,32.9,0000.0,0004.60,0009.89,0003.92
2022-08-14 09:09:00,,0828.9,5.01,0.00,29.6,27.5,00.0,38.4,31.3,32.6,0000.0,0004.63,0009.68,0003.93
2022-08-14 09:10:00,,0829.2,5.01,0.00,29.6,27.5,00.0,38.4,31.2,32.2,0000.0,0004.68,0009.60,0003.96
2022-08-14 09:11:00,,0829.3,4.99,0.00,29.5,27.6,00.0,38.4,31.2,32.4,0000.0,0004.70,0009.83,0003.97
2022-08-14 09:12:00,,0829.1,5.02,0.00,29.5,27.8,00.0,38.4,31.3,32.0,0000.0,0004.72,0010.40,0003.99
2022-08-14 09:13:00,,0828.8,5.00,0.00,29.5,27.9,00.0,38.4,31.3,31.6,0000.0,0004.73,0010.59,0004.01
2022-08-14 09:14:00,,0828.8,4.99,0.00,29.5,28.0,00.0,38.4,31.3,31.4,0000.0,0004.73,0010.67,0004.03
2022-08-14 09:15:00,,0828.9,4.99,0.00,29.5,28.2,00.0,38.4,31.4,30.9,0000.0,0004.75,0011.20,0004.04
2022-08-14 09:16:00,,0828.9,5.00,0.00,29.5,28.3,00.0,38.4,31.4,31.2,0000.0,0004.73,0010.67,0004.04
2022-08-14 09:17:00,,0829.0,5.01,0.00,29.5,28.4,00.0,38.4,31.4,31.4,0000.0,0004.80,0011.18,0004.06
2022-08-14 09:18:00,,0829.0,4.99,0.00,29.6,28.4,00.0,38.4,31.4,31.3,0000.0,0004.86,0012.18,0004.06
2022-08-14 09:19:00,,0829.0,5.00,0.00,29.6,28.5,00.0,38.4,31.5,31.3,0000.0,0004.83,0012.48,0004.07
2022-08-14 09:20:00,,0829.0,5.00,0.00,29.6,28.6,00.0,38.4,31.5,31.2,0000.0,0004.82,0013.27,0004.07
2022-08-14 09:21:00,,0829.0,4.99,0.00,29.6,28.6,00.0,38.4,31.5,31.0,0000.0,0004.81,0014.10,0004.06
2022-08-14 09:22:00,,0829.0,5.01,0.00,29.6,28.7,00.0,38.4,31.6,30.9,0000.0,0004.80,0013.87,0004.05
2022-08-14 09:23:00,,0829.0,5.00,0.00,29.7,28.7,00.0,38.4,31.6,31.0,0000.0,0004.83,0013.62,0004.07
2022-08-14 09:24:00,,0829.0,4.99,0.00,29.7,28.8,00.0,38.4,31.6,30.8,0000.0,0004.91,0013.97,0004.07
2022-08-14 09:25:00,,0829.0,4.99,0.00,29.7,28.8,00.0,38.4,31.7,30.6,0000.0,0005.00,0013.96,0004.07
2022-08-14 09:26:00,,0829.0,5.00,0.00,29.7,28.9,00.0,38.5,31.7,30.7,0000.0,0005.03,0013.56,0004.06
2022-08-14 09:27:00,,0828.9,5.00,0.00,29.8,28.7,00.0,38.5,31.6,30.5,0000.0,0005.10,0013.82,0004.07
2022-08-14 09:28:00,,0828.9,5.01,0.00,29.7,28.0,00.0,38.4,31.4,30.5,0000.0,0005.21,0013.71,0004.08
2022-08-14 09:29:00,,0828.9,4.99,0.00,29.7,27.6,00.0,38.4,31.3,30.7,0000.0,0005.30,0013.08,0004.11
2022-08-14 09:30:00,,0828.9,5.01,0.00,29.6,27.5,00.0,38.4,31.2,30.9,0000.0,0005.40,0012.95,0004.12
2022-08-14 09:31:00,,0828.9,4.99,0.00,29.5,27.6,00.0,38.4,31.2,31.1,0000.0,0005.47,0012.79,0004.15
2022-08-14 09:32:00,,0829.0,5.01,0.00,29.5,27.7,00.0,38.4,31.2,31.0,0000.0,0005.55,0013.15,0004.15
2022-08-14 09:33:00,,0829.0,4.99,0.00,29.5,27.8,00.0,38.3,31.3,31.2,0000.0,0005.64,0013.66,0004.16
2022-08-14 09:34:00,,0829.0,5.01,0.00,29.5,27.9,00.0,38.3,31.3,31.6,0000.0,0005.72,0013.71,0004.17
2022-08-14 09:35:00,,0829.1,4.99,0.00,29.5,28.0,00.0,38.3,31.3,31.7,0000.0,0005.73,0013.35,0004.17
2022-08-14 09:36:00,,0829.0,5.00,0.00,29.5,28.2,00.0,38.3,31.4,31.7,0000.0,0005.70,0013.32,0004.18
2022-08-14 09:37:00,,0829.1,4.98,0.00,29.5,28.3,00.0,38.3,31.4,31.8,0000.0,0005.69,0013.03,0004.19
2022-08-14 09:38:00,,0829.1,5.01,0.00,29.5,28.4,00.0,38.3,31.4,31.8,0000.0,0005.65,0012.83,0004.18
2022-08-14 09:39:00,,0829.1,5.01,0.00,29.5,28.4,00.0,38.3,31.4,31.8,0000.0,0005.53,0012.50,0004.16
2022-08-14 09:40:00,,0829.1,5.00,0.00,29.6,28.5,00.0,38.3,31.5,32.1,0000.0,0005.40,0012.22,0004.13
2022-08-14 09:41:00,,0829.1,4.99,0.00,29.6,28.6,00.0,38.4,31.5,32.1,0000.0,0005.27,0011.96,0004.11
2022-08-14 09:42:00,,0829.1,5.00,0.00,29.6,28.6,00.0,38.4,31.5,32.3,0000.0,0005.16,0011.45,0004.09
2022-08-14 09:43:00,,0829.1,5.00,0.00,29.6,28.7,00.0,38.4,31.5,32.5,0000.0,0005.03,0010.08,0004.08
2022-08-14 09:44:00,,0829.1,5.00,0.00,29.7,28.7,00.0,38.4,31.6,32.6,0000.0,0004.91,0009.40,0004.08
2022-08-14 09:45:00,,0829.0,5.00,0.00,29.7,28.8,00.0,38.4,31.6,32.6,0000.0,0004.78,0008.94,0004.07
2022-08-14 09:46:00,,0829.1,5.00,0.00,29.7,28.8,00.0,38.4,31.6,32.5,0000.0,0004.73,0008.79,0004.06
2022-08-14 09:47:00,,0829.1,4.99,0.00,29.7,28.9,00.0,38.5,31.7,32.4,0000.0,0004.66,0008.49,0004.07
2022-08-14 09:48:00,,0829.1,4.99,0.00,29.7,28.9,00.0,38.5,31.7,32.3,0000.0,0004.59,0008.28,0004.07
2022-08-14 09:49:00,,0829.1,5.01,0.00,29.8,28.9,00.0,38.5,31.7,32.1,0000.0,0004.58,0008.31,0004.09
2022-08-14 09:50:00,,0829.1,4.99,0.00,29.7,28.3,00.0,38.4,31.5,32.0,0000.0,0004.56,0008.30,0004.10
2022-08-14 09:51:00,,0829.0,5.01,0.00,29.7,27.8,00.0,38.4,31.4,31.0,0000.0,0004.57,0008.57,0004.10
2022-08-14 09:52:00,,0829.0,4.99,0.00,29.6,27.5,00.0,38.4,31.2,30.9,0000.0,0004.60,0009.01,0004.10
2022-08-14 09:53:00,,0829.0,5.00,0.00,29.5,27.5,00.0,38.4,31.2,30.9,0000.0,0004.66,0009.03,0004.12
2022-08-14 09:54:00,,0829.0,4.99,0.00,29.5,27.6,00.0,38.4,31.2,30.6,0000.0,0004.79,0010.87,0004.13
2022-08-14 09:55:00,,0828.9,5.01,0.00,29.5,27.7,00.0,38.3,31.3,30.5,0000.0,0004.95,0011.69,0004.14
2022-08-14 09:56:00,,0828.9,4.99,0.00,29.5,27.9,00.0,38.3,31.3,30.5,0000.0,0005.06,0012.37,0004.16
2022-08-14 09:57:00,,0828.9,5.01,0.00,29.5,28.0,00.0,38.3,31.3,30.5,0000.0,0005.14,0012.75,0004.16
2022-08-14 09:58:00,,0828.9,4.99,0.00,29.5,28.1,00.0,38.3,31.3,30.6,0000.0,0005.21,0012.97,0004.16
2022-08-14 09:59:00,,0828.9,4.99,0.00,29.5,28.2,00.0,38.3,31.4,30.6,0000.0,0005.31,0013.49,0004.16
